Location: Brantley
(31.5822°N, 86.2569°W)
Time: 03:08:34
(UTC+00:00)

Transit 2A Rocket - Pass Details

Date: 20 February 2026
Orbit: 583 x 900 km, 66.7° (Epoch: 5 March)

Event Time Altitude Azimuth Distance (km) Brightness Sun altitude
Rises 07:41:23 0° 317° (NW) 3,231 - -58.5°
Reaches altitude 10° 07:44:26 10° 301° (WNW) 2,236 - -58.0°
Maximum altitude 07:48:01 20° 255° (WSW) 1,600 - -57.4°
Drops below altitude 10° 07:51:24 10° 209° (SSW) 2,081 - -56.8°
Sets 07:54:08 0° 192° (SSW) 2,935 - -56.3°
